[[{"header":{"parameterUnit":"m.s-1","parameterCategory":1,"la1":30.2991,"la2":30.254,"lo1":-89.0895,"lo2":-89.0444,"dy":0.0017,"dx":0.0017,"nx":28,"ny":28,"refTime":"2024-06-02T21:00:00:Z","depth":0,"parameterNumber":2,"parameterNumberName":"U-component_of_WINDS"},"data":[0,0,0,0,0,0,0,0,0,0,0,0,0,0,0,0,0,0,0,0,0,0,0,0,0,0,0,0,0,0,0,0,0,0,0,0,0,0,0,0,0,0,0,0,0,0,0,0,0,0,0,0,0,0,0,0,0,0,-0.0925,-0.0925,0,-0.0925,-0.0925,-0.0925,-0.0934,-0.0935,-0.0935,-0.0935,-0.0939,-0.0939,-0.0939,0,0,0,0,0,0,0,0,0,0,0,0,0,-0.0935,-0.0935,-0.0925,-0.0925,-0.0925,-0.0925,-0.0925,-0.0925,-0.0934,-0.0935,-0.0935,-0.0935,-0.0939,-0.0939,-0.0939,0,0,0,0,0,0,0,0,0,0,0,0,0,-0.0933,-0.0935,-0.0925,-0.093,-0.093,-0.0925,-0.0925,-0.0925,-0.0934,-0.0935,-0.0935,-0.0935,-0.0939,-0.0939,-0.0939,-0.0931,0,0,-0.0938,-0.0938,0,0,0,0,0,0,0,0,-0.0933,-0.0932,-0.0929,-0.0929,-0.093,-0.093,-0.093,-0.0927,-0.0934,-0.0933,-0.0935,-0.0936,-0.0936,-0.0936,-0.0936,-0.0931,-0.0931,-0.0938,-0.0938,-0.0938,-0.0938,0,0,0,0,0,0,0,-0.0933,-0.0932,-0.0925,-0.0929,-0.0929,-0.0932,-0.0932,-0.093,-0.0933,-0.0933,-0.0934,-0.0933,-0.0936,-0.0936,-0.0936,-0.0931,-0.0938,-0.0938,-0.0938,-0.0938,-0.0918,-0.0918,0,0,0,0,0,0,-0.0932,-0.0932,-0.0925,-0.0925,-0.0932,-0.0932,-0.0932,-0.093,-0.0933,-0.0933,-0.0933,-0.0934,-0.0936,-0.0936,-0.0936,-0.0925,-0.0938,-0.0938,-0.0938,-0.0919,-0.0918,-0.0918,0,0,0,0,0,0,-0.0932,-0.0931,-0.0925,-0.0929,-0.0928,-0.0931,-0.0929,-0.093,-0.0929,-0.0933,-0.0934,-0.0932,-0.0936,-0.0936,-0.0931,-0.0926,-0.0938,-0.0938,-0.0919,-0.0919,-0.0918,-0.0905,0,0,0,0,0,0,-0.0933,-0.0931,-0.0928,-0.0929,-0.0928,-0.092,-0.0928,-0.0929,-0.0928,-0.0929,-0.0932,-0.0932,-0.0936,-0.0931,-0.0931,-0.0926,-0.0938,-0.092,-0.0919,-0.0918,-0.0906,-0.0904,-0.0903,0,0,0,0,0,-0.0933,-0.0926,-0.0928,-0.0927,-0.0924,-0.092,-0.0919,-0.0923,-0.0928,-0.0924,-0.0926,-0.0932,-0.0926,-0.0931,-0.0931,-0.0925,-0.092,-0.0919,-0.0918,-0.0907,-0.0905,-0.0903,0,0,0,0,0,0,-0.0926,-0.0926,-0.0928,-0.0921,-0.092,-0.0921,-0.0917,-0.0921,-0.092,-0.0921,-0.0926,-0.0927,-0.0921,-0.0923,-0.0928,-0.0917,-0.0924,-0.0923,-0.0916,-0.0913,-0.0912,-0.0911,-0.0937,0,0,0,0,0,-0.0924,-0.0919,-0.092,-0.0913,-0.0912,-0.0915,-0.0913,-0.0916,-0.0916,-0.0916,-0.0918,-0.0918,-0.0916,-0.0915,-0.0914,-0.0906,-0.0907,-0.0902,-0.0901,-0.0899,-0.0898,-0.0893,-0.0891,-0.0915,-0.0915,-0.0915,0,0,-0.0919,-0.0918,-0.0915,-0.0912,-0.0911,-0.0907,-0.0915,-0.0911,-0.0907,-0.0916,-0.091,-0.0912,-0.0913,-0.0906,-0.0903,-0.0907,-0.0891,-0.0898,-0.0897,-0.0896,-0.0892,-0.0889,-0.0887,-0.0914,-0.0914,-0.0914,0,0,-0.0908,-0.0907,-0.09,-0.0899,-0.0897,-0.0899,-0.0897,-0.0897,-0.0898,-0.0892,-0.0898,-0.0895,-0.0892,-0.0891,-0.0891,-0.0877,-0.0882,-0.0877,-0.0867,-0.0862,-0.086,-0.0858,-0.0853,-0.085,-0.0876,-0.0876,-0.0876,0,-0.0902,-0.0895,-0.0897,-0.0891,-0.0889,-0.0894,-0.0888,-0.0887,-0.0886,-0.0885,-0.0889,-0.0883,-0.0885,-0.0877,-0.0873,-0.0873,-0.0871,-0.0876,-0.086,-0.0858,-0.0857,-0.0851,-0.0849,-0.0875,-0.0875,-0.0875,-0.0875,0,-0.0888,-0.0883,-0.0878,-0.0874,-0.0871,-0.0866,-0.0867,-0.0864,-0.0867,-0.0867,-0.0861,-0.0862,-0.086,-0.0859,-0.0862,-0.0852,-0.0854,-0.0859,-0.0867,-0.0854,-0.0849,-0.0847,-0.0874,-0.0874,-0.0874,-0.0874,0,0,-0.0874,-0.0869,-0.0868,-0.0865,-0.0862,-0.0859,-0.0853,-0.0849,-0.0846,-0.0845,-0.084,-0.0836,-0.084,-0.0839,-0.0842,-0.0838,-0.0825,-0.0843,-0.0843,-0.0839,-0.0812,-0.0808,-0.0805,-0.0828,-0.0828,-0.0827,-0.0812,0,-0.0862,-0.085,-0.0851,-0.084,-0.0835,-0.0839,-0.0833,-0.0831,-0.0832,-0.0828,-0.0829,-0.0825,-0.0831,-0.083,-0.0826,-0.0827,-0.0819,-0.0829,-0.0824,-0.0823,-0.0823,-0.0803,-0.0799,-0.0784,-0.081,-0.0809,-0.0809,0,-0.0848,-0.0843,-0.0831,-0.0827,-0.0825,-0.082,-0.0815,-0.0812,-0.0809,-0.081,-0.0807,-0.0811,-0.0805,-0.0812,-0.0804,-0.081,-0.0808,-0.0808,-0.0807,-0.0807,-0.0815,-0.0801,-0.0779,-0.0777,-0.0806,-0.0806,-0.0807,0,-0.0837,-0.0828,-0.0819,-0.0817,-0.0813,-0.0809,-0.0807,-0.0805,-0.0802,-0.0799,-0.0797,-0.0793,-0.0791,-0.0789,-0.0791,-0.0796,-0.0782,-0.079,-0.0782,-0.0782,-0.0779,-0.0779,-0.0756,-0.0778,-0.0778,-0.0778,-0.0778,0,-0.0824,-0.0817,-0.0814,-0.0809,-0.08,-0.0801,-0.0792,-0.0791,-0.0789,-0.0783,-0.0787,-0.0782,-0.0785,-0.0781,-0.0783,-0.0775,-0.0774,-0.0774,-0.0775,-0.0774,-0.0774,-0.0773,-0.0773,-0.0778,-0.0778,-0.0778,-0.0778,0,-0.0812,-0.081,-0.08,-0.0796,-0.0794,-0.0788,-0.0785,-0.078,-0.0779,-0.0772,-0.0771,-0.077,-0.0765,-0.0766,-0.0761,-0.0762,-0.0752,-0.0754,-0.0752,-0.0753,-0.0744,-0.0745,-0.0719,-0.0716,-0.0741,-0.0741,-0.0741,0,-0.0803,-0.0797,-0.0791,-0.0786,-0.0784,-0.0777,-0.0773,-0.0773,-0.0769,-0.0765,-0.076,-0.0754,-0.075,-0.0741,-0.0741,-0.0736,-0.0738,-0.0729,-0.0738,-0.0736,-0.0737,-0.0737,-0.0736,-0.0728,-0.0728,-0.0727,-0.0727,0,-0.0788,-0.0787,-0.078,-0.0773,-0.0767,-0.0762,-0.0757,-0.0754,-0.0754,-0.0749,-0.0742,-0.0738,-0.0731,-0.0725,-0.0721,-0.072,-0.0723,-0.0724,-0.0722,-0.0721,-0.072,-0.0719,-0.0747,-0.0725,-0.0725,-0.0726,-0.0726,-0.0726,-0.0777,-0.0771,-0.0765,-0.0757,-0.0752,-0.0747,-0.0741,-0.0739,-0.0733,-0.0726,-0.0727,-0.0719,-0.0715,-0.0709,-0.0707,-0.0701,-0.0705,-0.0702,-0.0701,-0.07,-0.0699,-0.072,-0.0701,-0.0701,-0.0701,-0.0701,-0.0701,0,-0.0761,-0.0757,-0.0749,-0.0741,-0.0734,-0.0736,-0.073,-0.0725,-0.0718,-0.0713,-0.0707,-0.0699,-0.0693,-0.0691,-0.0685,-0.0681,-0.0682,-0.0679,-0.0679,-0.0679,-0.0697,-0.0698,-0.0678,-0.0678,-0.0678,-0.0678,-0.0678,-0.0678,-0.0752,-0.0741,-0.0739,-0.0725,-0.0721,-0.0712,-0.0708,-0.0703,-0.0699,-0.0689,-0.0683,-0.0681,-0.0678,-0.0671,-0.0665,-0.0665,-0.0662,-0.0659,-0.0659,-0.0676,-0.0678,-0.068,-0.0682,-0.0658,-0.0658,-0.0642,-0.0642,-0.0641]},{"header":{"parameterUnit":"m.s-1","parameterCategory":1,"la1":30.2991,"la2":30.254,"lo1":-89.0895,"lo2":-89.0444,"dy":0.0017,"dx":0.0017,"nx":28,"ny":28,"refTime":"2024-06-02T21:00:00:Z","depth":0,"parameterNumber":3,"parameterNumberName":"V-component_of_WINDS"},"data":[0,0,0,0,0,0,0,0,0,0,0,0,0,0,0,0,0,0,0,0,0,0,0,0,0,0,0,0,0,0,0,0,0,0,0,0,0,0,0,0,0,0,0,0,0,0,0,0,0,0,0,0,0,0,0,0,0,0,4.896,4.896,0,4.8874,4.8873,4.8872,4.8822,4.8822,4.8822,4.8822,4.8725,4.8723,4.872,0,0,0,0,0,0,0,0,0,0,0,0,0,4.9075,4.9074,4.8961,4.8959,4.8958,4.8875,4.8873,4.8872,4.8822,4.8822,4.8822,4.8822,4.8726,4.8723,4.872,0,0,0,0,0,0,0,0,0,0,0,0,0,4.9011,4.9073,4.8961,4.8924,4.8919,4.8875,4.8873,4.8872,4.8822,4.8822,4.8822,4.8821,4.8727,4.8723,4.872,4.8703,0,0,4.8709,4.8707,0,0,0,0,0,0,0,0,4.9015,4.9007,4.893,4.8926,4.8921,4.8859,4.8878,4.8815,4.8822,4.8859,4.8822,4.8821,4.8769,4.8762,4.8746,4.8698,4.8694,4.8708,4.8706,4.8705,4.8704,0,0,0,0,0,0,0,4.9019,4.901,4.8926,4.8929,4.8924,4.8909,4.89,4.8866,4.8816,4.8856,4.8852,4.8843,4.8767,4.875,4.8744,4.8693,4.8708,4.8705,4.8703,4.8702,4.8628,4.8628,0,0,0,0,0,0,4.9031,4.9014,4.8929,4.8924,4.8969,4.8907,4.8897,4.8879,4.8817,4.8807,4.8843,4.8841,4.8756,4.8748,4.874,4.8717,4.8705,4.8701,4.8699,4.8628,4.8628,4.8628,0,0,0,0,0,0,4.9033,4.9023,4.8932,4.8968,4.8955,4.8906,4.8886,4.8877,4.8861,4.8807,4.8797,4.8836,4.8756,4.8745,4.8713,4.8713,4.87,4.8696,4.8627,4.8628,4.8628,4.8671,0,0,0,0,0,0,4.9037,4.9025,4.9019,4.8968,4.8954,4.8909,4.8886,4.8876,4.8856,4.8852,4.8798,4.8788,4.8755,4.8719,4.871,4.8708,4.8694,4.8627,4.8628,4.8628,4.867,4.8673,4.8676,0,0,0,0,0,4.9041,4.9032,4.9019,4.9009,4.8946,4.8909,4.8901,4.8865,4.8856,4.8849,4.8815,4.879,4.8715,4.8716,4.8705,4.8702,4.8627,4.8627,4.8628,4.8668,4.8672,4.8676,0,0,0,0,0,0,4.9081,4.9025,4.901,4.8985,4.8953,4.8901,4.8891,4.887,4.8837,4.8835,4.8789,4.8777,4.875,4.8723,4.8725,4.8684,4.8668,4.8667,4.8702,4.8706,4.8709,4.8716,4.8691,0,0,0,0,0,4.9088,4.9065,4.9016,4.8999,4.8984,4.8941,4.8923,4.8899,4.8862,4.8848,4.8811,4.8775,4.8743,4.8723,4.8691,4.8666,4.8653,4.8658,4.8661,4.8664,4.8663,4.8649,4.8651,4.863,4.863,4.863,0,0,4.9099,4.9066,4.9054,4.9006,4.8978,4.8954,4.8929,4.8904,4.8885,4.8843,4.8812,4.8784,4.874,4.8713,4.8698,4.8689,4.8667,4.8665,4.8668,4.8665,4.865,4.8652,4.8654,4.863,4.863,4.863,0,0,4.9109,4.9082,4.9066,4.9039,4.8999,4.8971,4.8967,4.8919,4.89,4.8869,4.8837,4.8813,4.8759,4.873,4.8708,4.871,4.8686,4.8701,4.8717,4.8704,4.8706,4.8707,4.8708,4.8709,4.87,4.87,4.87,0,4.9129,4.9094,4.9059,4.9037,4.9017,4.8981,4.8964,4.8939,4.8889,4.8875,4.8866,4.88,4.8767,4.8733,4.8734,4.8717,4.8711,4.8706,4.8709,4.871,4.871,4.8711,4.8711,4.8702,4.8702,4.8702,4.8702,0,4.912,4.9096,4.9087,4.9044,4.9022,4.9002,4.8964,4.8946,4.8924,4.8896,4.8865,4.8826,4.8786,4.8776,4.8752,4.8739,4.8735,4.8718,4.8701,4.8715,4.8715,4.8715,4.8705,4.8704,4.8704,4.8703,0,0,4.915,4.9091,4.9088,4.9069,4.9023,4.9003,4.8981,4.8946,4.8932,4.8899,4.8879,4.8836,4.8822,4.8797,4.877,4.8758,4.8764,4.8743,4.8741,4.8749,4.8747,4.876,4.8761,4.8748,4.8748,4.8748,4.8751,0,4.9154,4.9117,4.9086,4.9059,4.9037,4.9004,4.8985,4.8954,4.8928,4.8904,4.8873,4.8845,4.8827,4.8812,4.8799,4.8766,4.8763,4.8765,4.8728,4.8727,4.8741,4.8761,4.8774,4.8779,4.8751,4.8751,4.8751,0,4.9152,4.9125,4.9097,4.9056,4.9046,4.903,4.8996,4.8973,4.8937,4.8919,4.8894,4.8867,4.8841,4.8828,4.8792,4.8795,4.8778,4.8759,4.8758,4.8753,4.874,4.8757,4.878,4.8781,4.875,4.875,4.875,0,4.9179,4.9134,4.9113,4.9097,4.9048,4.9038,4.9016,4.8981,4.8962,4.8931,4.8919,4.8884,4.8865,4.8839,4.8803,4.8797,4.8771,4.8755,4.8754,4.8755,4.875,4.8751,4.8771,4.8739,4.8739,4.8739,4.8739,0,4.9186,4.917,4.9124,4.9111,4.9092,4.9057,4.9039,4.9014,4.8983,4.8963,4.8931,4.8913,4.8867,4.8842,4.8814,4.8789,4.878,4.8764,4.8757,4.8767,4.8769,4.8755,4.8754,4.8739,4.8739,4.8739,4.8739,0,4.9211,4.918,4.9154,4.9112,4.9101,4.9089,4.9051,4.9036,4.901,4.8985,4.8977,4.8935,4.8905,4.8867,4.8823,4.8804,4.8783,4.8771,4.8796,4.8792,4.8794,4.8794,4.8805,4.8805,4.8774,4.8774,4.8774,0,4.9218,4.9206,4.9163,4.9149,4.913,4.9107,4.9089,4.9054,4.9036,4.8996,4.8986,4.8955,4.8927,4.8881,4.8844,4.8811,4.8799,4.8805,4.8793,4.8805,4.88,4.8801,4.88,4.8808,4.8808,4.8809,4.8809,0,4.9233,4.9219,4.9196,4.9168,4.9148,4.9124,4.9097,4.9087,4.9046,4.9027,4.8998,4.8978,4.8936,4.8905,4.8868,4.8843,4.8819,4.8814,4.8812,4.8822,4.8838,4.883,4.8804,4.8813,4.8813,4.8812,4.8812,4.8812,4.9249,4.9238,4.9207,4.9183,4.916,4.9137,4.9122,4.9095,4.9072,4.9037,4.9017,4.8989,4.8954,4.8903,4.888,4.8856,4.8847,4.8844,4.8843,4.8843,4.8847,4.8842,4.8849,4.8849,4.8849,4.8848,4.8848,0,4.9263,4.9243,4.9221,4.9188,4.9168,4.9151,4.9122,4.9106,4.9083,4.9054,4.903,4.8997,4.8967,4.893,4.8898,4.8886,4.8874,4.8879,4.8879,4.8874,4.8857,4.8862,4.8889,4.8889,4.8889,4.8889,4.8889,4.8889,4.9268,4.9249,4.9232,4.9201,4.9179,4.9154,4.9139,4.9117,4.9095,4.9061,4.9038,4.9015,4.8983,4.8948,4.892,4.891,4.8899,4.8907,4.8894,4.8878,4.8875,4.8871,4.8876,4.8905,4.8905,4.8913,4.8913,4.8913]}]]